Location: Wien
(48.2082°N, 16.3738°E)
Time: 20:07:52
(UTC+02:00)

MOZHAYETS 4 - Pass Details

Date: 29 March 2019
Orbit: 663 x 679 km, 98.0° (Epoch: 24 April)

Event Time Altitude Azimuth Distance (km) Brightness Sun altitude
Exits shadow 00:50:36 18° 29° (NNE) 1,635 10.3 -37.4°
Drops below altitude 10° 00:52:21 10° 11° (N) 2,118 11.0 -37.3°
Sets 00:54:57 0° 357° (N) 3,040 12.0 -37.2°
